Location: Wharf Road Observatory
(44.7802°N, 65.6070°W)
Time: 04:57:23
(UTC-04:00)

ISS - Visible Passes

Search period start: 01 December 2021 00:00
Search period end: 11 December 2021 00:00
Orbit: 417 x 423 km, 51.6° (Epoch: 01 December)

Date Brightness Start Highest point End Pass type
(mag) Time Alt. Az. Time Alt. Az. Time Alt. Az.
01 Dec -2.8 18:23:17 10° NW 18:26:23 32° NNE 18:26:23 32° NNE visible
02 Dec -2.5 17:36:05 10° NW 17:39:04 28° N 17:41:14 15° ENE visible
02 Dec -1.5 19:12:51 10° WNW 19:14:13 22° WNW 19:14:13 22° WNW visible
03 Dec -3.7 18:25:39 10° NW 18:29:01 56° NNE 18:29:10 56° NE visible
04 Dec -3.2 17:38:29 10° NW 17:41:44 41° NNE 17:44:14 15° E visible
04 Dec -1.5 19:15:22 10° WNW 19:17:15 26° W 19:17:15 26° W visible
05 Dec -3.4 18:28:02 10° WNW 18:31:25 62° SW 18:32:31 37° SSE visible
06 Dec -3.8 17:40:47 10° WNW 17:44:12 85° NNE 17:47:35 10° ESE visible
06 Dec -0.9 19:18:35 10° W 19:20:37 15° SW 19:21:05 15° SW visible
07 Dec -1.4 18:30:46 10° W 18:33:34 24° SW 18:36:21 10° SSE visible
08 Dec -2.2 17:43:15 10° WNW 17:46:26 38° SW 17:49:36 10° SSE visible
10 Dec -0.5 17:46:26 10° W 17:48:25 15° SW 17:50:23 10° SSW visible
